| time (UTC) | temp C | wind direction | speed KPH | gust KPH | rain 1hr cm | rain 24hr cm | rain mn cm | humidity % | barometer mb |
| 20260505124541 | 20 | 234 | 0.0 | 3.2 | 0.00 | 0.00 | 0.00 | 62 | 1010.2 |
| 20260505123521 | 18 | 252 | 0.0 | 3.2 | 0.00 | 0.00 | 0.00 | 65 | 1010.2 |
| 20260505122519 | 17 | 253 | 0.0 | 3.2 | 0.00 | 0.00 | 0.00 | 67 | 1010.3 |
| 20260505121518 | 17 | 240 | 1.6 | 4.8 | 0.00 | 0.00 | 0.00 | 69 | 1010.5 |
| 20260505120519 | 16 | 212 | 0.0 | 4.8 | 0.00 | 0.00 | 0.00 | 73 | 1010.6 |
| 20260505115518 | 14 | 267 | 0.0 | 1.6 | 0.00 | 0.00 | 0.00 | 77 | 1010.5 |
| 20260505114521 | 13 | 226 | 0.0 | 3.2 | 0.00 | 0.00 | 0.00 | 83 | 1010.4 |
| 20260505113521 | 12 | 302 | 0.0 | 3.2 | 0.00 | 0.00 | 0.00 | 86 | 1010.3 |
| 20260505112518 | 12 | 111 | 0.0 | 1.6 | 0.00 | 0.00 | 0.00 | 87 | 1010.0 |
| 20260505111539 | 12 | 96 | 1.6 | 3.2 | 0.00 | 0.00 | 0.00 | 87 | 1010.3 |
| 20260505110518 | 11 | 214 | 0.0 | 3.2 | 0.00 | 0.00 | 0.00 | 86 | 1010.7 |
| 20260505101519 | 10 | 31 | 0.0 | 1.6 | 0.00 | 0.00 | 0.00 | 90 | 1010.1 |
| 20260505100520 | 10 | 67 | 0.0 | 0.0 | 0.00 | 0.00 | 0.00 | 89 | 1010.0 |
| 20260505095520 | 10 | 258 | 0.0 | 4.8 | 0.00 | 0.00 | 0.00 | 88 | 1010.0 |
| 20260505094520 | 10 | 304 | 0.0 | 1.6 | 0.00 | 0.00 | 0.00 | 87 | 1009.8 |
| 20260505093520 | 10 | 59 | 0.0 | 1.6 | 0.00 | 0.00 | 0.00 | 86 | 1009.6 |
| 20260505092521 | 11 | 256 | 0.0 | 3.2 | 0.00 | 0.00 | 0.00 | 84 | 1009.7 |
| 20260505091520 | 11 | 261 | 0.0 | 1.6 | 0.00 | 0.00 | 0.00 | 84 | 1009.5 |
| 20260505090520 | 11 | 0.0 | 0.0 | 0.00 | 0.00 | 0.00 | 84 | 1009.5 | |
| 20260505085520 | 11 | 0.0 | 0.0 | 0.00 | 0.00 | 0.00 | 83 | 1009.5 | |
| 20260505084521 | 12 | 333 | 0.0 | 0.0 | 0.00 | 0.00 | 0.00 | 80 | 1009.5 |
| 20260505083518 | 12 | 246 | 1.6 | 3.2 | 0.00 | 0.00 | 0.00 | 80 | 1009.4 |
| 20260505082518 | 12 | 232 | 0.0 | 1.6 | 0.00 | 0.00 | 0.00 | 79 | 1009.5 |
| 20260505081521 | 11 | 227 | 0.0 | 1.6 | 0.00 | 0.00 | 0.00 | 80 | 1009.5 |
| 20260505080519 | 11 | 210 | 0.0 | 3.2 | 0.00 | 0.00 | 0.00 | 82 | 1009.5 |
| 20260505075518 | 11 | 0.0 | 0.0 | 0.00 | 0.00 | 0.00 | 85 | 1009.6 | |
| 20260505074518 | 10 | 71 | 0.0 | 1.6 | 0.00 | 0.00 | 0.00 | 86 | 1009.6 |
| 20260505073539 | 10 | 83 | 0.0 | 1.6 | 0.00 | 0.00 | 0.00 | 84 | 1009.5 |
| 20260505072519 | 10 | 206 | 0.0 | 1.6 | 0.00 | 0.00 | 0.00 | 84 | 1009.5 |
| 20260505071523 | 11 | 239 | 0.0 | 1.6 | 0.00 | 0.00 | 0.00 | 84 | 1009.5 |
| 20260505070519 | 11 | 82 | 0.0 | 1.6 | 0.00 | 0.00 | 0.00 | 82 | 1009.5 |
| 20260505065520 | 11 | 259 | 0.0 | 1.6 | 0.00 | 0.00 | 0.00 | 81 | 1009.5 |
| 20260505064540 | 11 | 9 | 0.0 | 1.6 | 0.00 | 0.00 | 0.00 | 80 | 1009.4 |
| 20260505063542 | 11 | 12 | 0.0 | 3.2 | 0.00 | 0.00 | 0.00 | 79 | 1009.5 |
| 20260505062541 | 11 | 0.0 | 0.0 | 0.00 | 0.00 | 0.00 | 79 | 1009.7 | |
| 20260505061520 | 12 | 41 | 0.0 | 3.2 | 0.00 | 0.00 | 0.00 | 79 | 1009.7 |
| 20260505060541 | 12 | 29 | 0.0 | 3.2 | 0.00 | 0.00 | 0.00 | 77 | 1009.8 |
| 20260505055520 | 12 | 43 | 0.0 | 3.2 | 0.00 | 0.00 | 0.00 | 76 | 1009.7 |
| 20260505054520 | 12 | 326 | 0.0 | 1.6 | 0.00 | 0.00 | 0.00 | 74 | 1009.8 |
| 20260505053520 | 12 | 0.0 | 0.0 | 0.00 | 0.00 | 0.00 | 74 | 1009.8 | |
| 20260505052521 | 13 | 0.0 | 0.0 | 0.00 | 0.00 | 0.00 | 73 | 1009.9 | |
| 20260505051517 | 13 | 296 | 0.0 | 3.2 | 0.00 | 0.00 | 0.00 | 70 | 1010.0 |
| 20260505050538 | 13 | 262 | 0.0 | 3.2 | 0.00 | 0.00 | 0.00 | 69 | 1010.1 |
| 20260505041518 | 15 | 146 | 0.0 | 0.0 | 0.00 | 0.00 | 0.00 | 59 | 1010.1 |
| 20260505040519 | 16 | 257 | 0.0 | 1.6 | 0.00 | 0.00 | 0.00 | 58 | 1010.1 |
| 20260505035522 | 16 | 231 | 0.0 | 1.6 | 0.00 | 0.00 | 0.00 | 57 | 1010.1 |
| 20260505034541 | 16 | 224 | 0.0 | 3.2 | 0.00 | 0.00 | 0.00 | 57 | 1010.1 |
| 20260505033519 | 16 | 218 | 0.0 | 3.2 | 0.00 | 0.00 | 0.00 | 56 | 1010.1 |
| 20260505032519 | 16 | 223 | 0.0 | 3.2 | 0.00 | 0.00 | 0.00 | 55 | 1010.2 |
| 20260505031519 | 16 | 232 | 0.0 | 3.2 | 0.00 | 0.00 | 0.00 | 55 | 1010.2 |
| 20260505030620 | 16 | 227 | 1.6 | 3.2 | 0.00 | 0.00 | 0.00 | 54 | 1010.3 |
| 20260505025520 | 16 | 228 | 0.0 | 3.2 | 0.00 | 0.00 | 0.00 | 53 | 1010.2 |
| 20260505024520 | 16 | 207 | 0.0 | 3.2 | 0.00 | 0.00 | 0.00 | 53 | 1010.2 |
| 20260505023521 | 17 | 221 | 1.6 | 3.2 | 0.00 | 0.00 | 0.00 | 52 | 1010.2 |
| 20260505022520 | 17 | 216 | 1.6 | 6.4 | 0.00 | 0.00 | 0.00 | 50 | 1010.3 |
| 20260505021520 | 17 | 224 | 0.0 | 3.2 | 0.00 | 0.00 | 0.00 | 49 | 1010.3 |
| 20260505020520 | 17 | 250 | 0.0 | 1.6 | 0.00 | 0.00 | 0.00 | 47 | 1010.3 |
| 20260505015520 | 18 | 240 | 0.0 | 3.2 | 0.00 | 0.00 | 0.00 | 46 | 1010.1 |
| 20260505014520 | 18 | 230 | 1.6 | 3.2 | 0.00 | 0.00 | 0.00 | 45 | 1010.1 |
| 20260505013521 | 18 | 230 | 1.6 | 3.2 | 0.00 | 0.00 | 0.00 | 45 | 1010.0 |
| 20260505012519 | 18 | 234 | 1.6 | 4.8 | 0.00 | 0.00 | 0.00 | 44 | 1009.9 |
| 20260505011518 | 18 | 233 | 1.6 | 3.2 | 0.00 | 0.00 | 0.00 | 44 | 1009.8 |
| 20260505010520 | 19 | 239 | 1.6 | 4.8 | 0.00 | 0.00 | 0.00 | 43 | 1009.7 |
| 20260505005521 | 19 | 238 | 1.6 | 4.8 | 0.00 | 0.00 | 0.00 | 43 | 1009.5 |
| 20260505004522 | 19 | 233 | 1.6 | 4.8 | 0.00 | 0.00 | 0.00 | 42 | 1009.4 |
| 20260505003519 | 20 | 234 | 1.6 | 4.8 | 0.00 | 0.00 | 0.00 | 42 | 1009.2 |
| 20260505002519 | 20 | 229 | 1.6 | 4.8 | 0.00 | 0.00 | 0.00 | 41 | 1009.1 |
| 20260505001520 | 20 | 233 | 1.6 | 4.8 | 0.00 | 0.00 | 0.00 | 41 | 1009.0 |
| 20260505000519 | 20 | 233 | 1.6 | 4.8 | 0.00 | 0.00 | 0.00 | 40 | 1008.8 |
| 20260504235519 | 20 | 228 | 1.6 | 6.4 | 0.00 | 0.00 | 0.00 | 40 | 1008.6 |
| 20260504234522 | 21 | 221 | 1.6 | 6.4 | 0.00 | 0.00 | 0.00 | 39 | 1008.5 |
| 20260504233519 | 21 | 229 | 1.6 | 4.8 | 0.00 | 0.00 | 0.00 | 38 | 1008.3 |
| 20260504232541 | 22 | 229 | 1.6 | 6.4 | 0.00 | 0.00 | 0.00 | 37 | 1008.2 |
| 20260504231520 | 22 | 224 | 1.6 | 6.4 | 0.00 | 0.00 | 0.00 | 37 | 1008.1 |
| 20260504230543 | 22 | 232 | 4.8 | 12.9 | 0.00 | 0.00 | 0.00 | 37 | 1008.0 |
| 20260504225520 | 22 | 232 | 3.2 | 9.7 | 0.00 | 0.00 | 0.00 | 37 | 1007.9 |
| 20260504224520 | 22 | 225 | 3.2 | 9.7 | 0.00 | 0.00 | 0.00 | 36 | 1007.9 |
| 20260504223520 | 22 | 225 | 3.2 | 11.3 | 0.00 | 0.00 | 0.00 | 36 | 1008.0 |
| 20260504222521 | 22 | 223 | 1.6 | 6.4 | 0.00 | 0.00 | 0.00 | 36 | 1008.0 |
| 20260504221520 | 22 | 226 | 3.2 | 12.9 | 0.00 | 0.00 | 0.00 | 36 | 1008.0 |
| 20260504220520 | 22 | 218 | 3.2 | 9.7 | 0.00 | 0.00 | 0.00 | 35 | 1008.1 |
| 20260504215520 | 23 | 227 | 4.8 | 16.1 | 0.00 | 0.00 | 0.00 | 35 | 1008.2 |
| 20260504214518 | 23 | 231 | 3.2 | 6.4 | 0.00 | 0.00 | 0.00 | 35 | 1008.3 |
| 20260504213518 | 23 | 216 | 3.2 | 11.3 | 0.00 | 0.00 | 0.00 | 35 | 1008.3 |
| 20260504212521 | 23 | 220 | 3.2 | 11.3 | 0.00 | 0.00 | 0.00 | 34 | 1008.4 |
| 20260504211522 | 23 | 227 | 1.6 | 8.0 | 0.00 | 0.00 | 0.00 | 35 | 1008.4 |
| 20260504210520 | 23 | 234 | 3.2 | 8.0 | 0.00 | 0.00 | 0.00 | 35 | 1008.4 |
| 20260504205538 | 23 | 254 | 6.4 | 16.1 | 0.00 | 0.00 | 0.00 | 35 | 1008.4 |
| 20260504204519 | 23 | 225 | 3.2 | 6.4 | 0.00 | 0.00 | 0.00 | 35 | 1008.3 |
| 20260504203520 | 22 | 207 | 3.2 | 12.9 | 0.00 | 0.00 | 0.00 | 35 | 1008.4 |
| 20260504202519 | 22 | 238 | 4.8 | 9.7 | 0.00 | 0.00 | 0.00 | 35 | 1008.4 |
| 20260504201540 | 22 | 236 | 6.4 | 14.5 | 0.00 | 0.00 | 0.00 | 35 | 1008.5 |
| 20260504200522 | 22 | 231 | 4.8 | 11.3 | 0.00 | 0.00 | 0.00 | 35 | 1008.6 |
| 20260504195520 | 22 | 243 | 4.8 | 12.9 | 0.00 | 0.00 | 0.00 | 36 | 1008.7 |
| 20260504194520 | 22 | 235 | 3.2 | 8.0 | 0.00 | 0.00 | 0.00 | 36 | 1008.8 |
| 20260504193541 | 21 | 226 | 3.2 | 12.9 | 0.00 | 0.00 | 0.00 | 36 | 1008.9 |
| 20260504192519 | 21 | 232 | 4.8 | 12.9 | 0.00 | 0.00 | 0.00 | 36 | 1009.0 |
| 20260504191517 | 22 | 234 | 4.8 | 9.7 | 0.00 | 0.00 | 0.00 | 36 | 1009.0 |
| 20260504190520 | 22 | 203 | 1.6 | 8.0 | 0.00 | 0.00 | 0.00 | 37 | 1009.1 |
| 20260504185520 | 22 | 209 | 3.2 | 9.7 | 0.00 | 0.00 | 0.00 | 36 | 1009.3 |
| 20260504184542 | 21 | 248 | 4.8 | 11.3 | 0.00 | 0.00 | 0.00 | 37 | 1009.4 |
| 20260504183522 | 21 | 227 | 3.2 | 8.0 | 0.00 | 0.00 | 0.00 | 38 | 1009.5 |
| 20260504182517 | 21 | 253 | 8.0 | 16.1 | 0.00 | 0.00 | 0.00 | 37 | 1009.5 |
| 20260504181539 | 21 | 254 | 8.0 | 20.9 | 0.00 | 0.00 | 0.00 | 37 | 1009.6 |
| 20260504180541 | 21 | 248 | 6.4 | 16.1 | 0.00 | 0.00 | 0.00 | 37 | 1009.7 |
| 20260504175521 | 21 | 211 | 1.6 | 6.4 | 0.00 | 0.00 | 0.00 | 38 | 1009.9 |
| 20260504174523 | 20 | 252 | 6.4 | 19.3 | 0.00 | 0.00 | 0.00 | 37 | 1010.0 |
| 20260504173521 | 20 | 235 | 8.0 | 16.1 | 0.00 | 0.00 | 0.00 | 37 | 1010.2 |
| 20260504172518 | 20 | 237 | 6.4 | 14.5 | 0.00 | 0.00 | 0.00 | 37 | 1010.3 |
| 20260504171520 | 20 | 234 | 6.4 | 14.5 | 0.00 | 0.00 | 0.00 | 37 | 1010.5 |
| 20260504170519 | 20 | 219 | 4.8 | 16.1 | 0.00 | 0.00 | 0.00 | 37 | 1010.5 |
| 20260504150521 | 17 | 233 | 4.8 | 14.5 | 0.00 | 0.00 | 0.00 | 38 | 1011.8 |
| 20260504140519 | 16 | 224 | 3.2 | 11.3 | 0.00 | 0.00 | 0.00 | 41 | 1012.5 |